Location: Blazny
(46.0612°N, 84.4033°W)
Time: 09:00:03
(UTC-04:00)

ARIANE 6 FM1 Upper Stage - Pass Details

Date: 17 September 2024
Orbit: 564 x 594 km, 62.0° (Epoch: 03 October)

Event Time Altitude Azimuth Distance (km) Brightness Sun altitude
Exits shadow 03:05:05 10° 1° (N) 1,941 6.0 -37.7°
Maximum altitude 03:05:31 10° 6° (N) 1,933 6.0 -37.7°
Drops below altitude 10° 03:06:06 10° 14° (NNE) 1,949 6.1 -37.6°
Sets 03:10:40 0° 58° (ENE) 2,840 7.0 -37.2°
